Biloxi, MS

5:26 PM CST on January 20, 2018 (GMT -0600)
Keesler Air Force Base

Weather History for KBIX - March, 2013

Change the Weather History Date:

Wednesday, March 20, 2013

  Actual Average Record
Temperature  
Mean Temperature 60 °F -  
Max Temperature 67 °F 69 °F 81 °F (2015)
Min Temperature 51 °F 53 °F 31 °F (1965)
Degree Days  
Heating Degree Days 6    
Growing Degree Days 10 (Base 50)    
Moisture  
Dew Point 37 °F    
Average Humidity 46    
Maximum Humidity 63    
Minimum Humidity 28    
Precipitation  
Precipitation 0.00 in - - ()
Sea Level Pressure  
Sea Level Pressure 30.06 in    
Wind  
Wind Speed 9 mph (NNE)    
Max Wind Speed 17 mph    
Max Gust Speed 23 mph    
Visibility 10 miles    
Events Rain    
Averages and records for this station are not official NWS values.
T = Trace of Precipitation, MM = Missing Value Source: NWS Daily Summary

Daily Weather History Graph

Daily Weather History Graph

Search for Another Location

Airport or City:

Trip Planner

Search our weather history database for the weather conditions in past years. The results will help you decide how hot, cold, wet, or windy it might be!

Date:

Astronomy

Mar. 20, 2013 Rise Set
Actual Time 6:59 AM CDT 7:07 PM CDT
Civil Twilight 6:35 AM CDT 7:31 PM CDT
Nautical Twilight 6:07 AM CDT 7:59 PM CDT
Astronomical Twilight 5:39 AM CDT 8:27 PM CDT
Moon 1:04 PM CDT 2:16 AM CDT
Length of Visible Light 12h 56m
Length of Day
12h 08m
First Quarter, 59% of the Moon is Illuminated
Mar 20
First Quarter
Mar 27
Full
Apr 2
Last Quarter
Apr 10
New
Apr 18
First Quarter

Hourly Weather History & Observations

Time (CDT) Temp. Dew Point Humidity Pressure Visibility Wind Dir Wind Speed Gust Speed Precip Events Conditions
12:58 AM 59.2 °F 44.1 °F 57% 30.01 in 10.0 mi NE 8.1 mph - N/A   Clear
1:58 AM 59.0 °F 42.4 °F 54% 30.01 in 10.0 mi NNE 6.9 mph - N/A   Mostly Cloudy
2:58 AM 59.7 °F 39.4 °F 47% 30.00 in 10.0 mi NE 11.5 mph - N/A   Mostly Cloudy
3:58 AM 58.6 °F 38.1 °F 46% 29.99 in 10.0 mi NE 10.4 mph - N/A   Clear
4:58 AM 58.5 °F 37.8 °F 46% 30.01 in 10.0 mi NNE 10.4 mph - N/A   Overcast
5:58 AM 57.4 °F 37.0 °F 47% 30.04 in 10.0 mi NE 12.7 mph - N/A   Partly Cloudy
6:58 AM 56.8 °F 37.0 °F 48% 30.08 in 10.0 mi NNE 11.5 mph - N/A   Mostly Cloudy
7:58 AM 56.5 °F 36.3 °F 47% 30.09 in 10.0 mi NNE 17.3 mph 21.9 mph N/A   Mostly Cloudy
8:58 AM 57.2 °F 36.0 °F 45% 30.11 in 10.0 mi NNE 12.7 mph 23.0 mph N/A   Mostly Cloudy
9:58 AM 57.7 °F 36.1 °F 44% 30.12 in 10.0 mi NE 8.1 mph - N/A   Scattered Clouds
10:43 AM 57.2 °F 37.4 °F 48% 30.12 in 10.0 mi North 6.9 mph - N/A Rain Light Rain
10:58 AM 56.1 °F 40.1 °F 55% 30.12 in 10.0 mi NNE 4.6 mph - 0.00 in Rain Light Rain
11:27 AM 55.4 °F 42.8 °F 63% 30.13 in 10.0 mi North 3.5 mph - N/A   Mostly Cloudy
11:58 AM 55.8 °F 42.1 °F 60% 30.14 in 10.0 mi North 8.1 mph - 0.00 in   Mostly Cloudy
12:58 PM 57.6 °F 43.2 °F 59% 30.11 in 10.0 mi NNW 8.1 mph - N/A   Scattered Clouds
1:58 PM 59.9 °F 41.5 °F 51% 30.08 in 10.0 mi North 10.4 mph - N/A   Scattered Clouds
2:58 PM 65.7 °F 39.7 °F 39% 30.06 in 10.0 mi North 15.0 mph - N/A   Clear
3:58 PM 67.1 °F 35.4 °F 31% 30.03 in 10.0 mi North 13.8 mph 21.9 mph N/A   Clear
4:58 PM 67.1 °F 33.8 °F 29% 30.02 in 10.0 mi North 12.7 mph 21.9 mph N/A   Clear
5:58 PM 65.7 °F 31.3 °F 28% 30.02 in 10.0 mi North 11.5 mph - N/A   Clear
6:58 PM 62.2 °F 31.5 °F 31% 30.04 in 10.0 mi North 9.2 mph - N/A   Clear
7:58 PM 59.2 °F 32.5 °F 37% 30.05 in 10.0 mi North 5.8 mph - N/A   Clear
8:58 PM 56.7 °F 34.2 °F 43% 30.05 in 10.0 mi WNW 1.2 mph - N/A   Clear
9:58 PM 52.5 °F 35.4 °F 52% 30.05 in 10.0 mi NNW 2.3 mph - N/A   Clear
10:54 PM 55.4 °F 32.0 °F 41% 30.05 in 10.0 mi North 10.4 mph - N/A   Clear
11:58 PM 51.4 °F 31.1 °F 46% 30.07 in 10.0 mi North 8.1 mph - N/A   Clear